Location: Observatoire
(46.1952°N, 5.3391°E)
Time: 21:54:01
(UTC+01:00)

A-11 Canister half - Pass Details

Date: 23 February 2026
Orbit: 1525 x 1683 km, 47.3° (Epoch: 5 March)

Event Time Altitude Azimuth Distance (km) Brightness Sun altitude
Rises 22:28:28 0° 292° (WNW) 4,678 12.3 -42.3°
Reaches altitude 10° 22:31:52 10° 283° (WNW) 3,693 11.5 -42.8°
Enters shadow 22:38:00 31° 244° (WSW) 2,447 10.1 -43.6°
Maximum altitude 22:39:46 33° 224° (SW) 2,366 - -43.8°
Drops below altitude 10° 22:47:46 10° 165° (SSE) 3,731 - -44.8°
Sets 22:51:15 0° 156° (SSE) 4,733 - -45.2°
